This is the latest recevied weather packets stored in our database for station/object N4UUJ-1. If no packets are shown the sender has not sent any weather packets the latest 10 day(s).
| Time | Temp. | Humidity | Pressure | Rain* | Wind** | Luminosity | Snow |
|---|---|---|---|---|---|---|---|
| 1787950216 | 28.89° C | 75% | 1020.1 hPa | 0 mm | - | - | - |
| 1787948415 | 29.44° C | 75% | 1020.3 hPa | 0 mm | - | - | - |
| 1787946614 | 29.44° C | 75% | 1020.6 hPa | 0 mm | - | - | - |
| 1787944813 | 30° C | 75% | 1021 hPa | 0 mm | - | - | - |
| 1787943012 | 29.44° C | 75% | 1021.1 hPa | 0 mm | - | - | - |
| 1787941211 | 28.89° C | 75% | 1021.4 hPa | 0 mm | - | - | - |
| 1787939410 | 29.44° C | 75% | 1021.5 hPa | 0 mm | - | - | - |
| 1787937609 | 28.89° C | 75% | 1021.5 hPa | 0 mm | - | - | - |
| 1787935808 | 28.33° C | 75% | 1021.6 hPa | 0 mm | - | - | - |
| 1787934007 | 27.22° C | 75% | 1021.8 hPa | 0 mm | - | - | - |
| 1787932206 | 26.67° C | 75% | 1021.8 hPa | 0 mm | - | - | - |
| 1787930405 | 25.56° C | 75% | 1021.7 hPa | 0 mm | - | - | - |
| 1787928604 | 25.56° C | 75% | 1021.6 hPa | 0 mm | - | - | - |
| 1787926803 | 24.44° C | 75% | 1021.5 hPa | 0 mm | - | - | - |
| 1787925002 | 23.89° C | 75% | 1021.5 hPa | 0 mm | - | - | - |
| 1787923201 | 20° C | 75% | 1021.3 hPa | 0 mm | - | - | - |
| 1787921400 | 18.33° C | 75% | 1021.1 hPa | 0 mm | - | - | - |
| 1787919599 | 15.56° C | 75% | 1020.5 hPa | 0 mm | - | - | - |
| 1787917798 | 15.56° C | 75% | 1020.5 hPa | 0 mm | - | - | - |
| 1787915997 | 15.56° C | 75% | 1020.3 hPa | 0 mm | - | - | - |
| 1787914196 | 15.56° C | 75% | 1020 hPa | 0 mm | - | - | - |
| 1787912395 | 16.11° C | 75% | 1019.7 hPa | 0 mm | - | - | - |
| 1787910594 | 16.11° C | 75% | 1019.6 hPa | 0 mm | - | - | - |
| 1787908793 | 16.11° C | 75% | 1019.4 hPa | 0 mm | - | - | - |
| 1787906992 | 16.11° C | 75% | 1019.4 hPa | 0 mm | - | - | - |
* Rain latest hour (hover to see other rain measurements)
** Current wind speed in m/s (hover to see current wind gust speed)